Regional Weather Roundup
Issued by NWS Cleveland, OH

Home | Current Version | Previous Version | Text Only | Print | Product List | Glossary On
Versions: 1 2 3 4 5 6 7 8 9 10 11 12 13 14 15 16 17 18 19 20 21 22 23 24 25 26 27 28 29 30 31 32 33 34 35 36 37 38 39 40 41 42 43 44 45 46 47 48 49 50
000
ASUS41 KCLE 301310
RWRCLE
OHIO REGIONAL WEATHER ROUNDUP
NATIONAL WEATHER SERVICE CLEVELAND, OH
900 AM EDT THU OCT 30 2014

NOTE: "FAIR" INDICATES FEW OR NO CLOUDS BELOW 12,000 FEET WITH NO
SIGNIFICANT WEATHER AND/OR OBSTRUCTIONS TO VISIBILITY.

OHZ001>008-015>018-024>027-034-035-043-044-301400-
   NORTHWEST OHIO

CITY           SKY/WX    TMP DP  RH WIND       PRES   REMARKS
DEFIANCE       CLOUDY    39  37  92 CALM      30.16R
FINDLAY        CLEAR     39  36  89 CALM      30.14R
TOLEDO EXPRESS CLEAR     33  31  92 SW3       30.14R
TOLEDO EXEC    CLEAR     35  33  92 CALM      30.16R
LIMA           MOCLDY    42  38  85 CALM      30.15R FOG
$$

OHZ009>014-019>023-028>033-038-089-301400-
   NORTHEAST OHIO

CITY           SKY/WX    TMP DP  RH WIND       PRES   REMARKS
CLE-HOPKINS    CLOUDY    42  40  92 VRB6      30.15R
CLE-LAKEFRONT  CLOUDY   N/A N/A N/A N12       30.12R
CUY CO. ARPT   CLOUDY    46  39  76 N7        30.12R
LORAIN-ELYRIA  CLOUDY    41  39  93 W3        30.13R
ASHTABULA      LGT RAIN  44  42  93 CALM      30.10S FOG
AKRON-CANTON   CLOUDY    40  37  89 W5        30.11R FOG
WOOSTER        SUNNY     38  35  89 W3        30.13R
MANSFIELD      CLEAR     38  37  97 W5        30.13R
YOUNGSTOWN     CLOUDY    43  41  93 W3        30.09R
$$

OHZ042-051>053-060>062-070>072-077>081-301400-
  SOUTHWEST OHIO

CITY           SKY/WX    TMP DP  RH WIND       PRES   REMARKS
CINC-COVINGTON PTCLDY    38  33  82 CALM      30.16S
CINC-LUNKEN    CLEAR     36  35  96 CALM      30.18S
HAMILTON       CLOUDY    42  38  85 CALM      30.18R
DAYTON         MOCLDY    43  37  79 CALM      30.16S
WRIGHT-PAT AFB CLOUDY    43  36  75 VRB1      30.16R
DAYTON GENERAL CLOUDY    42  37  82 CALM      30.15R
WILMINGTON     CLOUDY    42  35  76 N5        30.15R
$$

OHZ036-037-039>041-045>050-054>059-063>069-073>076-082>088-301400-
  CENTRAL AND SOUTHEAST OHIO

CITY           SKY/WX    TMP DP  RH WIND       PRES   REMARKS
COLUMBUS       MOSUNNY   42  36  79 N3        30.15R
OSU AIRPORT    CLEAR     42  36  79 NW6       30.15R
BOLTON FIELD   PTCLDY    41  37  87 NW5       30.16R
RICKENBACK AFB SUNNY     39  37  91 CALM      30.15R
NEWARK         SUNNY     35  32  88 CALM      30.14R
MARION         CLEAR     39  36  89 CALM      30.15R
LANCASTER      SUNNY     36  33  89 CALM      30.16R
ZANESVILLE     SUNNY     32  30  92 CALM      30.14R
NEW PHILLY     SUNNY     37  34  89 CALM      30.14R
$$



USA.gov is the U.S. government's official web portal to all federal, state and local government web resources and services.